Year,Month,Day,Hour,Minute,Value (Times are PST for temperature in C)
2010,10,01,00,00,9.90
2010,10,01,00,01,9.80
2010,10,01,00,02,9.80
2010,10,01,00,03,9.80
2010,10,01,00,04,9.80
2010,10,01,00,05,9.80
2010,10,01,00,06,9.80
2010,10,01,00,07,9.70
2010,10,01,00,08,9.70
2010,10,01,00,09,9.70
2010,10,01,00,10,9.70
2010,10,01,00,11,9.60
2010,10,01,00,12,9.60
2010,10,01,00,13,9.60
2010,10,01,00,14,9.60
2010,10,01,00,15,9.60
2010,10,01,00,16,9.60
2010,10,01,00,17,9.60
2010,10,01,00,18,9.60
2010,10,01,00,19,9.60
2010,10,01,00,20,9.60
2010,10,01,00,21,9.50
2010,10,01,00,22,9.50
2010,10,01,00,23,9.50
2010,10,01,00,24,9.40
2010,10,01,00,25,9.40
2010,10,01,00,26,9.40
2010,10,01,00,27,9.40
2010,10,01,00,28,9.40
2010,10,01,00,29,9.40
2010,10,01,00,30,9.40
2010,10,01,00,31,9.40
2010,10,01,00,32,9.40
2010,10,01,00,33,9.30
2010,10,01,00,34,9.30
2010,10,01,00,35,9.30
2010,10,01,00,36,9.30
2010,10,01,00,37,9.30
2010,10,01,00,38,9.30
2010,10,01,00,39,9.30
2010,10,01,00,40,9.20
2010,10,01,00,41,9.20
2010,10,01,00,42,9.20
2010,10,01,00,43,9.20
2010,10,01,00,44,9.20
2010,10,01,00,45,9.20
2010,10,01,00,46,9.20
2010,10,01,00,47,9.20
2010,10,01,00,48,9.30
2010,10,01,00,49,9.30
2010,10,01,00,50,9.30
2010,10,01,00,51,9.40
2010,10,01,00,52,9.40
2010,10,01,00,53,9.40
2010,10,01,00,54,9.40
2010,10,01,00,55,9.40
2010,10,01,00,56,9.40
2010,10,01,00,57,9.40
2010,10,01,00,58,9.40
2010,10,01,00,59,9.40
2010,10,01,01,00,9.30
2010,10,01,01,01,9.30
2010,10,01,01,02,9.30
2010,10,01,01,03,9.30
2010,10,01,01,04,9.30
2010,10,01,01,05,9.30
2010,10,01,01,06,9.30
2010,10,01,01,07,9.30
2010,10,01,01,08,9.40
2010,10,01,01,09,9.40
2010,10,01,01,10,9.40
2010,10,01,01,11,9.40
2010,10,01,01,12,9.40
2010,10,01,01,13,9.40
2010,10,01,01,14,9.40
2010,10,01,01,15,9.30
2010,10,01,01,16,9.30
2010,10,01,01,17,9.30
2010,10,01,01,18,9.20
2010,10,01,01,19,9.20
2010,10,01,01,20,9.10
2010,10,01,01,21,9.10
2010,10,01,01,22,9.10
2010,10,01,01,23,9.00
2010,10,01,01,24,9.00
2010,10,01,01,25,9.00
2010,10,01,01,26,9.00
2010,10,01,01,27,9.00
2010,10,01,01,28,9.00
2010,10,01,01,29,9.00
2010,10,01,01,30,9.10
2010,10,01,01,31,9.10
2010,10,01,01,32,9.10
2010,10,01,01,33,9.10
2010,10,01,01,34,9.10
2010,10,01,01,35,9.10
2010,10,01,01,36,9.10
2010,10,01,01,37,9.10
2010,10,01,01,38,9.10
2010,10,01,01,39,9.10
2010,10,01,01,40,9.10
2010,10,01,01,41,9.10
2010,10,01,01,42,9.10
2010,10,01,01,43,9.10
2010,10,01,01,44,9.00
2010,10,01,01,45,9.00
2010,10,01,01,46,9.10
2010,10,01,01,47,9.10
2010,10,01,01,48,9.10
2010,10,01,01,49,9.00
2010,10,01,01,50,9.00
2010,10,01,01,51,9.00
2010,10,01,01,52,9.00
2010,10,01,01,53,9.00
2010,10,01,01,54,8.90
2010,10,01,01,55,8.90
2010,10,01,01,56,8.90
2010,10,01,01,57,8.90
2010,10,01,01,58,8.90
2010,10,01,01,59,8.90
2010,10,01,02,00,8.90
2010,10,01,02,01,8.90
2010,10,01,02,02,8.90
2010,10,01,02,03,8.90
2010,10,01,02,04,8.90
2010,10,01,02,05,8.90
2010,10,01,02,06,8.90
2010,10,01,02,07,8.90
2010,10,01,02,08,8.90
2010,10,01,02,09,8.90
2010,10,01,02,10,8.90
2010,10,01,02,11,8.90
2010,10,01,02,12,8.90
2010,10,01,02,13,8.80
2010,10,01,02,14,8.80
2010,10,01,02,15,8.80
2010,10,01,02,16,8.80
2010,10,01,02,17,8.90
2010,10,01,02,18,8.90
2010,10,01,02,19,8.90
2010,10,01,02,20,8.90
2010,10,01,02,21,8.90
2010,10,01,02,22,8.90
2010,10,01,02,23,8.90
2010,10,01,02,24,8.90
2010,10,01,02,25,8.90
2010,10,01,02,26,8.90
2010,10,01,02,27,9.00
2010,10,01,02,28,9.00
2010,10,01,02,29,9.10
2010,10,01,02,30,9.10
2010,10,01,02,31,9.10
2010,10,01,02,32,9.10
2010,10,01,02,33,9.10
2010,10,01,02,34,9.10
2010,10,01,02,35,9.10
2010,10,01,02,36,9.10
2010,10,01,02,37,9.10
2010,10,01,02,38,9.10
2010,10,01,02,39,9.10
2010,10,01,02,40,9.10
2010,10,01,02,41,9.20
2010,10,01,02,42,9.20
2010,10,01,02,43,9.20
2010,10,01,02,44,9.20
2010,10,01,02,45,9.20
2010,10,01,02,46,9.20
2010,10,01,02,47,9.20
2010,10,01,02,48,9.20
2010,10,01,02,49,9.20
2010,10,01,02,50,9.20
2010,10,01,02,51,9.20
2010,10,01,02,52,9.20
2010,10,01,02,53,9.20
2010,10,01,02,54,9.20
2010,10,01,02,55,9.20
2010,10,01,02,56,9.20
2010,10,01,02,57,9.10
2010,10,01,02,58,8.90
2010,10,01,02,59,8.80
2010,10,01,03,00,8.70
2010,10,01,03,01,8.60
2010,10,01,03,02,8.60
2010,10,01,03,03,8.50
2010,10,01,03,04,8.50
2010,10,01,03,05,8.40
2010,10,01,03,06,8.40
2010,10,01,03,07,8.40
2010,10,01,03,08,8.40
2010,10,01,03,09,8.40
2010,10,01,03,10,8.50
2010,10,01,03,11,8.60
2010,10,01,03,12,8.60
2010,10,01,03,13,8.60
2010,10,01,03,14,8.60
2010,10,01,03,15,8.60
2010,10,01,03,16,8.60
2010,10,01,03,17,8.50
2010,10,01,03,18,8.50
2010,10,01,03,19,8.50
2010,10,01,03,20,8.40
2010,10,01,03,21,8.40
2010,10,01,03,22,8.40
2010,10,01,03,23,8.40
2010,10,01,03,24,8.40
2010,10,01,03,25,8.40
2010,10,01,03,26,8.40
2010,10,01,03,27,8.40
2010,10,01,03,28,8.40
2010,10,01,03,29,8.40
2010,10,01,03,30,8.40
2010,10,01,03,31,8.40
2010,10,01,03,32,8.40
2010,10,01,03,33,8.30
2010,10,01,03,34,8.30
2010,10,01,03,35,8.30
2010,10,01,03,36,8.30
2010,10,01,03,37,8.30
2010,10,01,03,38,8.30
2010,10,01,03,39,8.30
2010,10,01,03,40,8.20
2010,10,01,03,41,8.20
2010,10,01,03,42,8.20
2010,10,01,03,43,8.20
2010,10,01,03,44,8.20
2010,10,01,03,45,8.20
2010,10,01,03,46,8.30
2010,10,01,03,47,8.20
2010,10,01,03,48,8.20
2010,10,01,03,49,8.20
2010,10,01,03,50,8.20
2010,10,01,03,51,8.20
2010,10,01,03,52,8.20
2010,10,01,03,53,8.20
2010,10,01,03,54,8.20
2010,10,01,03,55,8.20
2010,10,01,03,56,8.20
2010,10,01,03,57,8.20
2010,10,01,03,58,8.20
2010,10,01,03,59,8.20
2010,10,01,04,00,8.20
2010,10,01,04,01,8.30
2010,10,01,04,02,8.30
2010,10,01,04,03,8.30
2010,10,01,04,04,8.20
2010,10,01,04,05,8.20
2010,10,01,04,06,8.10
2010,10,01,04,07,8.10
2010,10,01,04,08,8.10
2010,10,01,04,09,8.10
2010,10,01,04,10,8.10
2010,10,01,04,11,8.10
2010,10,01,04,12,8.10
2010,10,01,04,13,8.10
2010,10,01,04,14,8.10
2010,10,01,04,15,8.10
2010,10,01,04,16,8.10
2010,10,01,04,17,8.10
2010,10,01,04,18,8.10
2010,10,01,04,19,8.10
2010,10,01,04,20,8.10
2010,10,01,04,21,8.10
2010,10,01,04,22,8.10
2010,10,01,04,23,8.20
2010,10,01,04,24,8.20
2010,10,01,04,25,8.30
2010,10,01,04,26,8.30
2010,10,01,04,27,8.30
2010,10,01,04,28,8.30
2010,10,01,04,29,8.30
2010,10,01,04,30,8.30
2010,10,01,04,31,8.30
2010,10,01,04,32,8.30
2010,10,01,04,33,8.20
2010,10,01,04,34,8.20
2010,10,01,04,35,8.30
2010,10,01,04,36,8.30
2010,10,01,04,37,8.30
2010,10,01,04,38,8.30
2010,10,01,04,39,8.30
2010,10,01,04,40,8.30
2010,10,01,04,41,8.30
2010,10,01,04,42,8.20
2010,10,01,04,43,8.20
2010,10,01,04,44,8.20
2010,10,01,04,45,8.20
2010,10,01,04,46,8.20
2010,10,01,04,47,8.20
2010,10,01,04,48,8.20
2010,10,01,04,49,8.20
2010,10,01,04,50,8.20
2010,10,01,04,51,8.20
2010,10,01,04,52,8.10
2010,10,01,04,53,8.10
2010,10,01,04,54,8.10
2010,10,01,04,55,8.00
2010,10,01,04,56,8.00
2010,10,01,04,57,8.00
2010,10,01,04,58,7.90
2010,10,01,04,59,7.90
2010,10,01,05,00,7.90
2010,10,01,05,01,7.90
2010,10,01,05,02,7.90
2010,10,01,05,03,7.90
2010,10,01,05,04,7.90
2010,10,01,05,05,7.90
2010,10,01,05,06,7.90
2010,10,01,05,07,7.90
2010,10,01,05,08,7.90
2010,10,01,05,09,7.90
2010,10,01,05,10,7.90
2010,10,01,05,11,7.90
2010,10,01,05,12,7.90
2010,10,01,05,13,7.90
2010,10,01,05,14,7.90
2010,10,01,05,15,7.90
2010,10,01,05,16,7.90
2010,10,01,05,17,7.90
2010,10,01,05,18,7.90
2010,10,01,05,19,7.90
2010,10,01,05,20,7.90
2010,10,01,05,21,7.90
2010,10,01,05,22,7.90
2010,10,01,05,23,7.90
2010,10,01,05,24,7.90
2010,10,01,05,25,7.90
2010,10,01,05,26,7.90
2010,10,01,05,27,7.90
2010,10,01,05,28,7.90
2010,10,01,05,29,7.90
2010,10,01,05,30,7.80
2010,10,01,05,31,7.80
2010,10,01,05,32,7.80
2010,10,01,05,33,7.80
2010,10,01,05,34,7.80
2010,10,01,05,35,7.80
2010,10,01,05,36,7.80
2010,10,01,05,37,7.90
2010,10,01,05,38,7.90
2010,10,01,05,39,7.90
2010,10,01,05,40,7.90
2010,10,01,05,41,7.90
2010,10,01,05,42,7.90
2010,10,01,05,43,7.90
2010,10,01,05,44,7.80
2010,10,01,05,45,7.80
2010,10,01,05,46,7.70
2010,10,01,05,47,7.70
2010,10,01,05,48,7.60
2010,10,01,05,49,7.60
2010,10,01,05,50,7.60
2010,10,01,05,51,7.60
2010,10,01,05,52,7.60
2010,10,01,05,53,7.70
2010,10,01,05,54,7.70
2010,10,01,05,55,7.80
2010,10,01,05,56,7.80
2010,10,01,05,57,7.80
2010,10,01,05,58,7.80
2010,10,01,05,59,7.80
2010,10,01,06,00,7.80
2010,10,01,06,01,7.80
2010,10,01,06,02,7.80
2010,10,01,06,03,7.80
2010,10,01,06,04,7.80
2010,10,01,06,05,7.80
2010,10,01,06,06,7.80
2010,10,01,06,07,7.80
2010,10,01,06,08,7.80
2010,10,01,06,09,7.80
2010,10,01,06,10,7.80
2010,10,01,06,11,7.70
2010,10,01,06,12,7.70
2010,10,01,06,13,7.70
2010,10,01,06,14,7.70
2010,10,01,06,15,7.70
2010,10,01,06,16,7.60
2010,10,01,06,17,7.60
2010,10,01,06,18,7.60
2010,10,01,06,19,7.50
2010,10,01,06,20,7.50
2010,10,01,06,21,7.60
2010,10,01,06,22,7.60
2010,10,01,06,23,7.70
2010,10,01,06,24,7.70
2010,10,01,06,25,7.70
2010,10,01,06,26,7.70
2010,10,01,06,27,7.70
2010,10,01,06,28,7.70
2010,10,01,06,29,7.60
2010,10,01,06,30,7.60
2010,10,01,06,31,7.60
2010,10,01,06,32,7.60
2010,10,01,06,33,7.60
2010,10,01,06,34,7.60
2010,10,01,06,35,7.60
2010,10,01,06,36,7.60
2010,10,01,06,37,7.50
2010,10,01,06,38,7.50
2010,10,01,06,39,7.50
2010,10,01,06,40,7.40
2010,10,01,06,41,7.40
2010,10,01,06,42,7.40
2010,10,01,06,43,7.40
2010,10,01,06,44,7.40
2010,10,01,06,45,7.40
2010,10,01,06,46,7.40
2010,10,01,06,47,7.40
2010,10,01,06,48,7.40
2010,10,01,06,49,7.40
2010,10,01,06,50,7.50
2010,10,01,06,51,7.60
2010,10,01,06,52,7.70
2010,10,01,06,53,7.80
2010,10,01,06,54,7.80
2010,10,01,06,55,7.90
2010,10,01,06,56,8.00
2010,10,01,06,57,8.00
2010,10,01,06,58,8.10
2010,10,01,06,59,8.10
2010,10,01,07,00,8.10
2010,10,01,07,01,8.00
2010,10,01,07,02,8.00
2010,10,01,07,03,7.80
2010,10,01,07,04,7.70
2010,10,01,07,05,7.50
2010,10,01,07,06,7.40
2010,10,01,07,07,7.20
2010,10,01,07,08,7.10
2010,10,01,07,09,7.00
2010,10,01,07,10,6.90
2010,10,01,07,11,6.80
2010,10,01,07,12,6.80
2010,10,01,07,13,6.80
2010,10,01,07,14,6.80
2010,10,01,07,15,6.80
2010,10,01,07,16,7.00
2010,10,01,07,17,7.00
2010,10,01,07,18,7.00
2010,10,01,07,19,7.10
2010,10,01,07,20,7.10
2010,10,01,07,21,7.10
2010,10,01,07,22,7.20
2010,10,01,07,23,7.30
2010,10,01,07,24,7.40
2010,10,01,07,25,7.50
2010,10,01,07,26,7.60
2010,10,01,07,27,7.70
2010,10,01,07,28,7.80
2010,10,01,07,29,7.90
2010,10,01,07,30,8.00
2010,10,01,07,31,8.00
2010,10,01,07,32,8.10
2010,10,01,07,33,8.10
2010,10,01,07,34,8.20
2010,10,01,07,35,8.20
2010,10,01,07,36,8.20
2010,10,01,07,37,8.20
2010,10,01,07,38,8.10
2010,10,01,07,39,8.10
2010,10,01,07,40,8.10
2010,10,01,07,41,8.20
2010,10,01,07,42,8.20
2010,10,01,07,43,8.30
2010,10,01,07,44,8.30
2010,10,01,07,45,8.30
2010,10,01,07,46,8.30
2010,10,01,07,47,8.20
2010,10,01,07,48,8.10
2010,10,01,07,49,8.10
2010,10,01,07,50,8.00
2010,10,01,07,51,8.00
2010,10,01,07,52,7.90
2010,10,01,07,53,7.90
2010,10,01,07,54,8.00
2010,10,01,07,55,8.00
2010,10,01,07,56,8.10
2010,10,01,07,57,8.20
2010,10,01,07,58,8.30
2010,10,01,07,59,8.30
2010,10,01,08,00,8.40
2010,10,01,08,01,8.40
2010,10,01,08,02,8.50
2010,10,01,08,03,8.50
2010,10,01,08,04,8.50
2010,10,01,08,05,8.50
2010,10,01,08,06,8.50
2010,10,01,08,07,8.50
2010,10,01,08,08,8.50
2010,10,01,08,09,8.60
2010,10,01,08,10,8.60
2010,10,01,08,11,8.70
2010,10,01,08,12,8.80
2010,10,01,08,13,8.80
2010,10,01,08,14,8.90
2010,10,01,08,15,9.00
2010,10,01,08,16,9.10
2010,10,01,08,17,9.20
2010,10,01,08,18,9.30
2010,10,01,08,19,9.30
2010,10,01,08,20,9.30
2010,10,01,08,21,9.30
2010,10,01,08,22,9.30
2010,10,01,08,23,9.30
2010,10,01,08,24,9.30
2010,10,01,08,25,9.30
2010,10,01,08,26,9.30
2010,10,01,08,27,9.30
2010,10,01,08,28,9.30
2010,10,01,08,29,9.30
2010,10,01,08,30,9.30
2010,10,01,08,31,9.40
2010,10,01,08,32,9.40
2010,10,01,08,33,9.50
2010,10,01,08,34,9.60
2010,10,01,08,35,9.60
2010,10,01,08,36,9.80
2010,10,01,08,37,9.90
2010,10,01,08,38,10.00
2010,10,01,08,39,10.10
2010,10,01,08,40,10.10
2010,10,01,08,41,10.20
2010,10,01,08,42,10.20
2010,10,01,08,43,10.30
2010,10,01,08,44,10.30
2010,10,01,08,45,10.30
2010,10,01,08,46,10.40
2010,10,01,08,47,10.40
2010,10,01,08,48,10.50
2010,10,01,08,49,10.50
2010,10,01,08,50,10.60
2010,10,01,08,51,10.60
2010,10,01,08,52,10.70
2010,10,01,08,53,10.80
2010,10,01,08,54,10.90
2010,10,01,08,55,11.10
2010,10,01,08,56,11.20
2010,10,01,08,57,11.20
2010,10,01,08,58,11.30
2010,10,01,08,59,11.30
2010,10,01,09,00,11.30
2010,10,01,09,01,11.30
2010,10,01,09,02,11.40
2010,10,01,09,03,11.40
2010,10,01,09,04,11.50
2010,10,01,09,05,11.60
2010,10,01,09,06,11.70
2010,10,01,09,07,11.80
2010,10,01,09,08,12.00
2010,10,01,09,09,12.10
2010,10,01,09,10,12.30
2010,10,01,09,11,12.40
2010,10,01,09,12,12.40
2010,10,01,09,13,12.50
2010,10,01,09,14,12.50
2010,10,01,09,15,12.60
2010,10,01,09,16,12.80
2010,10,01,09,17,12.90
2010,10,01,09,18,13.10
2010,10,01,09,19,13.20
2010,10,01,09,20,13.40
2010,10,01,09,21,13.50
2010,10,01,09,22,13.60
2010,10,01,09,23,13.80
2010,10,01,09,24,13.90
2010,10,01,09,25,14.00
2010,10,01,09,26,14.20
2010,10,01,09,27,14.30
2010,10,01,09,28,14.50
2010,10,01,09,29,14.60
2010,10,01,09,30,14.70
2010,10,01,09,31,14.80
2010,10,01,09,32,14.90
2010,10,01,09,33,15.00
2010,10,01,09,34,15.00
2010,10,01,09,35,15.00
2010,10,01,09,36,15.00
2010,10,01,09,37,15.00
2010,10,01,09,38,15.00
2010,10,01,09,39,15.00
2010,10,01,09,40,15.00
2010,10,01,09,41,15.00
2010,10,01,09,42,15.00
2010,10,01,09,43,15.00
2010,10,01,09,44,15.00
2010,10,01,09,45,15.00
2010,10,01,09,46,15.00
2010,10,01,09,47,15.00
2010,10,01,09,48,15.00
2010,10,01,09,49,15.00
2010,10,01,09,50,15.00
2010,10,01,09,51,15.20
2010,10,01,09,52,15.20
2010,10,01,09,53,15.30
2010,10,01,09,54,15.30
2010,10,01,09,55,15.40
2010,10,01,09,56,15.40
2010,10,01,09,57,15.50
2010,10,01,09,58,15.60
2010,10,01,09,59,15.60
2010,10,01,10,00,15.70
2010,10,01,10,01,15.80
2010,10,01,10,02,15.90
2010,10,01,10,03,15.90
2010,10,01,10,04,16.00
2010,10,01,10,05,16.10
2010,10,01,10,06,16.10
2010,10,01,10,07,16.20
2010,10,01,10,08,16.20
2010,10,01,10,09,16.30
2010,10,01,10,10,16.30
2010,10,01,10,11,16.40
2010,10,01,10,12,16.50
2010,10,01,10,13,16.50
2010,10,01,10,14,16.60
2010,10,01,10,15,16.60
2010,10,01,10,16,16.70
2010,10,01,10,17,16.80
2010,10,01,10,18,16.80
2010,10,01,10,19,16.90
2010,10,01,10,20,16.90
2010,10,01,10,21,17.00
2010,10,01,10,22,17.10
2010,10,01,10,23,17.20
2010,10,01,10,24,17.30
2010,10,01,10,25,17.30
2010,10,01,10,26,17.40
2010,10,01,10,27,17.40
2010,10,01,10,28,17.40
2010,10,01,10,29,17.50
2010,10,01,10,30,17.60
2010,10,01,10,31,17.70
2010,10,01,10,32,17.80
2010,10,01,10,33,17.80
2010,10,01,10,34,17.90
2010,10,01,10,35,17.90
2010,10,01,10,36,17.90
2010,10,01,10,37,17.90
2010,10,01,10,38,18.00
2010,10,01,10,39,18.00
2010,10,01,10,40,18.10
2010,10,01,10,41,18.10
2010,10,01,10,42,18.20
2010,10,01,10,43,18.20
2010,10,01,10,44,18.20
2010,10,01,10,45,18.20
2010,10,01,10,46,18.20
2010,10,01,10,47,18.20
2010,10,01,10,48,18.20
2010,10,01,10,49,18.20
2010,10,01,10,50,18.10
2010,10,01,10,51,18.00
2010,10,01,10,52,18.00
2010,10,01,10,53,18.00
2010,10,01,10,54,18.00
2010,10,01,10,55,18.00
2010,10,01,10,56,18.10
2010,10,01,10,57,18.10
2010,10,01,10,58,18.20
2010,10,01,10,59,18.20
2010,10,01,11,00,18.10
2010,10,01,11,01,18.10
2010,10,01,11,02,18.10
2010,10,01,11,03,18.10
2010,10,01,11,04,18.10
2010,10,01,11,05,18.20
2010,10,01,11,06,18.20
2010,10,01,11,07,18.10
2010,10,01,11,08,18.20
2010,10,01,11,09,18.20
2010,10,01,11,10,18.20
2010,10,01,11,11,18.30
2010,10,01,11,12,18.40
2010,10,01,11,13,18.40
2010,10,01,11,14,18.40
2010,10,01,11,15,18.40
2010,10,01,11,16,18.40
2010,10,01,11,17,18.40
2010,10,01,11,18,18.40
2010,10,01,11,19,18.40
2010,10,01,11,20,18.40
2010,10,01,11,21,18.30
2010,10,01,11,22,18.40
2010,10,01,11,23,18.50
2010,10,01,11,24,18.60
2010,10,01,11,25,18.60
2010,10,01,11,26,18.70
2010,10,01,11,27,18.70
2010,10,01,11,28,18.70
2010,10,01,11,29,18.70
2010,10,01,11,30,18.80
2010,10,01,11,31,18.80
2010,10,01,11,32,18.80
2010,10,01,11,33,18.80
2010,10,01,11,34,18.80
2010,10,01,11,35,18.90
2010,10,01,11,36,18.90
2010,10,01,11,37,18.90
2010,10,01,11,38,18.90
2010,10,01,11,39,18.90
2010,10,01,11,40,18.90
2010,10,01,11,41,18.90
2010,10,01,11,42,18.90
2010,10,01,11,43,19.00
2010,10,01,11,44,19.00
2010,10,01,11,45,19.10
2010,10,01,11,46,19.10
2010,10,01,11,47,19.20
2010,10,01,11,48,19.20
2010,10,01,11,49,19.20
2010,10,01,11,50,19.20
2010,10,01,11,51,19.30
2010,10,01,11,52,19.30
2010,10,01,11,53,19.40
2010,10,01,11,54,19.40
2010,10,01,11,55,19.40
2010,10,01,11,56,19.50
2010,10,01,11,57,19.70
2010,10,01,11,58,19.80
2010,10,01,11,59,19.80
2010,10,01,12,00,19.70
2010,10,01,12,01,19.70
2010,10,01,12,02,19.80
2010,10,01,12,03,19.80
2010,10,01,12,04,19.70
2010,10,01,12,05,19.70
2010,10,01,12,06,19.70
2010,10,01,12,07,19.70
2010,10,01,12,08,19.70
2010,10,01,12,09,19.80
2010,10,01,12,10,19.90
2010,10,01,12,11,19.90
2010,10,01,12,12,19.90
2010,10,01,12,13,20.00
2010,10,01,12,14,20.00
2010,10,01,12,15,20.10
2010,10,01,12,16,20.10
2010,10,01,12,17,20.10
2010,10,01,12,18,20.10
2010,10,01,12,19,20.00
2010,10,01,12,20,19.90
2010,10,01,12,21,19.90
2010,10,01,12,22,19.90
2010,10,01,12,23,19.90
2010,10,01,12,24,20.00
2010,10,01,12,25,20.00
2010,10,01,12,26,20.00
2010,10,01,12,27,20.00
2010,10,01,12,28,19.90
2010,10,01,12,29,19.80
2010,10,01,12,30,19.70
2010,10,01,12,31,19.60
2010,10,01,12,32,19.60
2010,10,01,12,33,19.60
2010,10,01,12,34,19.60
2010,10,01,12,35,19.60
2010,10,01,12,36,19.60
2010,10,01,12,37,19.70
2010,10,01,12,38,19.80
2010,10,01,12,39,19.90
2010,10,01,12,40,19.90
2010,10,01,12,41,19.80
2010,10,01,12,42,19.80
2010,10,01,12,43,19.60
2010,10,01,12,44,19.50
2010,10,01,12,45,19.50
2010,10,01,12,46,19.40
2010,10,01,12,47,19.40
2010,10,01,12,48,19.30
2010,10,01,12,49,19.30
2010,10,01,12,50,19.30
2010,10,01,12,51,19.30
2010,10,01,12,52,19.30
2010,10,01,12,53,19.40
2010,10,01,12,54,19.40
2010,10,01,12,55,19.50
2010,10,01,12,56,19.60
2010,10,01,12,57,19.70
2010,10,01,12,58,19.70
2010,10,01,12,59,19.80
2010,10,01,13,00,19.80
2010,10,01,13,01,19.80
2010,10,01,13,02,19.70
2010,10,01,13,03,19.70
2010,10,01,13,04,19.70
2010,10,01,13,05,19.70
2010,10,01,13,06,19.70
2010,10,01,13,07,19.70
2010,10,01,13,08,19.70
2010,10,01,13,09,19.80
2010,10,01,13,10,19.80
2010,10,01,13,11,19.80
2010,10,01,13,12,19.90
2010,10,01,13,13,19.90
2010,10,01,13,14,19.90
2010,10,01,13,15,19.90
2010,10,01,13,16,20.00
2010,10,01,13,17,20.10
2010,10,01,13,18,20.10
2010,10,01,13,19,20.20
2010,10,01,13,20,20.30
2010,10,01,13,21,20.20
2010,10,01,13,22,20.30
2010,10,01,13,23,20.40
2010,10,01,13,24,20.40
2010,10,01,13,25,20.50
2010,10,01,13,26,20.60
2010,10,01,13,27,20.70
2010,10,01,13,28,20.70
2010,10,01,13,29,20.80
2010,10,01,13,30,20.80
2010,10,01,13,31,20.80
2010,10,01,13,32,20.70
2010,10,01,13,33,20.70
2010,10,01,13,34,20.70
2010,10,01,13,35,20.60
2010,10,01,13,36,20.70
2010,10,01,13,37,20.70
2010,10,01,13,38,20.70
2010,10,01,13,39,20.80
2010,10,01,13,40,20.80
2010,10,01,13,41,20.90
2010,10,01,13,42,21.00
2010,10,01,13,43,21.00
2010,10,01,13,44,21.00
2010,10,01,13,45,21.00
2010,10,01,13,46,21.00
2010,10,01,13,47,21.00
2010,10,01,13,48,21.00
2010,10,01,13,49,20.90
2010,10,01,13,50,20.90
2010,10,01,13,51,21.00
2010,10,01,13,52,21.10
2010,10,01,13,53,21.10
2010,10,01,13,54,21.20
2010,10,01,13,55,21.30
2010,10,01,13,56,21.30
2010,10,01,13,57,21.30
2010,10,01,13,58,21.30
2010,10,01,13,59,21.20
2010,10,01,14,00,21.10
2010,10,01,14,01,21.00
2010,10,01,14,02,21.00
2010,10,01,14,03,20.90
2010,10,01,14,04,20.90
2010,10,01,14,05,20.90
2010,10,01,14,06,21.00
2010,10,01,14,07,21.00
2010,10,01,14,08,21.00
2010,10,01,14,09,21.10
2010,10,01,14,10,21.20
2010,10,01,14,11,21.20
2010,10,01,14,12,21.30
2010,10,01,14,13,21.30
2010,10,01,14,14,21.40
2010,10,01,14,15,21.50
2010,10,01,14,16,21.60
2010,10,01,14,17,21.60
2010,10,01,14,18,21.70
2010,10,01,14,19,21.80
2010,10,01,14,20,21.80
2010,10,01,14,21,21.80
2010,10,01,14,22,21.70
2010,10,01,14,23,21.70
2010,10,01,14,24,21.70
2010,10,01,14,25,21.50
2010,10,01,14,26,21.40
2010,10,01,14,27,21.30
2010,10,01,14,28,21.30
2010,10,01,14,29,21.30
2010,10,01,14,30,21.30
2010,10,01,14,31,21.30
2010,10,01,14,32,21.40
2010,10,01,14,33,21.50
2010,10,01,14,34,21.60
2010,10,01,14,35,21.60
2010,10,01,14,36,21.50
2010,10,01,14,37,21.50
2010,10,01,14,38,21.50
2010,10,01,14,39,21.50
2010,10,01,14,40,21.50
2010,10,01,14,41,21.70
2010,10,01,14,42,21.80
2010,10,01,14,43,21.80
2010,10,01,14,44,21.90
2010,10,01,14,45,22.00
2010,10,01,14,46,22.10
2010,10,01,14,47,22.10
2010,10,01,14,48,22.10
2010,10,01,14,49,22.10
2010,10,01,14,50,22.10
2010,10,01,14,51,22.10
2010,10,01,14,52,22.00
2010,10,01,14,53,21.90
2010,10,01,14,54,21.90
2010,10,01,14,55,22.00
2010,10,01,14,56,22.10
2010,10,01,14,57,22.10
2010,10,01,14,58,22.10
2010,10,01,14,59,22.10
2010,10,01,15,00,22.00
2010,10,01,15,01,22.00
2010,10,01,15,02,22.00
2010,10,01,15,03,22.00
2010,10,01,15,04,21.90
2010,10,01,15,05,21.90
2010,10,01,15,06,21.90
2010,10,01,15,07,21.90
2010,10,01,15,08,21.90
2010,10,01,15,09,21.90
2010,10,01,15,10,21.90
2010,10,01,15,11,21.90
2010,10,01,15,12,21.90
2010,10,01,15,13,22.00
2010,10,01,15,14,22.10
2010,10,01,15,15,22.20
2010,10,01,15,16,22.30
2010,10,01,15,17,22.30
2010,10,01,15,18,22.30
2010,10,01,15,19,22.30
2010,10,01,15,20,22.30
2010,10,01,15,21,22.30
2010,10,01,15,22,22.30
2010,10,01,15,23,22.30
2010,10,01,15,24,22.30
2010,10,01,15,25,22.20
2010,10,01,15,26,22.20
2010,10,01,15,27,22.20
2010,10,01,15,28,22.20
2010,10,01,15,29,22.10
2010,10,01,15,30,22.00
2010,10,01,15,31,21.90
2010,10,01,15,32,21.80
2010,10,01,15,33,21.80
2010,10,01,15,34,21.80
2010,10,01,15,35,21.80
2010,10,01,15,36,21.80
2010,10,01,15,37,21.80
2010,10,01,15,38,21.80
2010,10,01,15,39,21.80
2010,10,01,15,40,21.80
2010,10,01,15,41,21.80
2010,10,01,15,42,21.80
2010,10,01,15,43,21.70
2010,10,01,15,44,21.70
2010,10,01,15,45,21.70
2010,10,01,15,46,21.70
2010,10,01,15,47,21.70
2010,10,01,15,48,21.70
2010,10,01,15,49,21.60
2010,10,01,15,50,21.70
2010,10,01,15,51,21.70
2010,10,01,15,52,21.70
2010,10,01,15,53,21.60
2010,10,01,15,54,21.70
2010,10,01,15,55,21.70
2010,10,01,15,56,21.80
2010,10,01,15,57,21.80
2010,10,01,15,58,21.90
2010,10,01,15,59,22.00
2010,10,01,16,00,22.00
2010,10,01,16,01,22.00
2010,10,01,16,02,22.00
2010,10,01,16,03,21.90
2010,10,01,16,04,22.00
2010,10,01,16,05,22.10
2010,10,01,16,06,22.20
2010,10,01,16,07,22.30
2010,10,01,16,08,22.30
2010,10,01,16,09,22.30
2010,10,01,16,10,22.20
2010,10,01,16,11,22.10
2010,10,01,16,12,22.10
2010,10,01,16,13,22.10
2010,10,01,16,14,22.00
2010,10,01,16,15,21.90
2010,10,01,16,16,21.80
2010,10,01,16,17,21.80
2010,10,01,16,18,21.80
2010,10,01,16,19,21.80
2010,10,01,16,20,21.80
2010,10,01,16,21,21.80
2010,10,01,16,22,21.70
2010,10,01,16,23,21.60
2010,10,01,16,24,21.60
2010,10,01,16,25,21.50
2010,10,01,16,26,21.40
2010,10,01,16,27,21.20
2010,10,01,16,28,21.10
2010,10,01,16,29,21.00
2010,10,01,16,30,21.00
2010,10,01,16,31,21.00
2010,10,01,16,32,20.90
2010,10,01,16,33,20.90
2010,10,01,16,34,20.90
2010,10,01,16,35,21.00
2010,10,01,16,36,21.10
2010,10,01,16,37,21.20
2010,10,01,16,38,21.10
2010,10,01,16,39,21.00
2010,10,01,16,40,21.00
2010,10,01,16,41,21.10
2010,10,01,16,42,21.10
2010,10,01,16,43,21.20
2010,10,01,16,44,21.20
2010,10,01,16,45,21.20
2010,10,01,16,46,21.30
2010,10,01,16,47,21.30
2010,10,01,16,48,21.30
2010,10,01,16,49,21.30
2010,10,01,16,50,21.30
2010,10,01,16,51,21.30
2010,10,01,16,52,21.40
2010,10,01,16,53,21.40
2010,10,01,16,54,21.50
2010,10,01,16,55,21.50
2010,10,01,16,56,21.50
2010,10,01,16,57,21.50
2010,10,01,16,58,21.60
2010,10,01,16,59,21.60
2010,10,01,17,00,21.60
2010,10,01,17,01,21.70
2010,10,01,17,02,21.80
2010,10,01,17,03,21.80
2010,10,01,17,04,21.90
2010,10,01,17,05,22.00
2010,10,01,17,06,22.00
2010,10,01,17,07,22.10
2010,10,01,17,08,22.20
2010,10,01,17,09,22.20
2010,10,01,17,10,22.20
2010,10,01,17,11,22.30
2010,10,01,17,12,22.40
2010,10,01,17,13,22.50
2010,10,01,17,14,22.60
2010,10,01,17,15,22.70
2010,10,01,17,16,22.80
2010,10,01,17,17,22.80
2010,10,01,17,18,22.90
2010,10,01,17,19,22.90
2010,10,01,17,20,23.00
2010,10,01,17,21,23.00
2010,10,01,17,22,23.00
2010,10,01,17,23,23.00
2010,10,01,17,24,23.00
2010,10,01,17,25,23.00
2010,10,01,17,26,23.10
2010,10,01,17,27,23.10
2010,10,01,17,28,23.00
2010,10,01,17,29,23.00
2010,10,01,17,30,23.00
2010,10,01,17,31,22.90
2010,10,01,17,32,22.90
2010,10,01,17,33,22.90
2010,10,01,17,34,22.80
2010,10,01,17,35,22.80
2010,10,01,17,36,22.80
2010,10,01,17,37,22.80
2010,10,01,17,38,22.70
2010,10,01,17,39,22.70
2010,10,01,17,40,22.60
2010,10,01,17,41,22.50